[[{"header":{"parameterUnit":"m.s-1","parameterCategory":1,"la1":30.2991,"la2":30.254,"lo1":-89.0895,"lo2":-89.0444,"dy":0.0017,"dx":0.0017,"nx":28,"ny":28,"refTime":"2025-07-16T09:00:00:Z","depth":0,"parameterNumber":2,"parameterNumberName":"U-component_of_WINDS"},"data":[0,0,0,0,0,0,0,0,0,0,0,0,0,0,0,0,0,0,0,0,0,0,0,0,0,0,0,0,0,0,0,0,0,0,0,0,0,0,0,0,0,0,0,0,0,0,0,0,0,0,0,0,0,0,0,0,0,0,0.9274,0.9273,0,0.9225,0.9225,0.9224,0.9158,0.9157,0.9156,0.9155,0.9107,0.9107,0.9106,0,0,0,0,0,0,0,0,0,0,0,0,0,0.9309,0.9309,0.9274,0.9273,0.9272,0.9225,0.9225,0.9224,0.9158,0.9157,0.9155,0.9154,0.9107,0.9107,0.9106,0,0,0,0,0,0,0,0,0,0,0,0,0,0.9281,0.9309,0.9274,0.9234,0.923,0.9225,0.9225,0.9224,0.9158,0.9157,0.9155,0.9154,0.9107,0.9107,0.9106,0.9138,0,0,0.9105,0.9105,0,0,0,0,0,0,0,0,0.9283,0.928,0.924,0.9237,0.9232,0.9196,0.922,0.9195,0.9159,0.9186,0.9155,0.9153,0.9138,0.9135,0.913,0.9135,0.9133,0.9105,0.9105,0.9105,0.9105,0,0,0,0,0,0,0,0.9285,0.9281,0.9254,0.924,0.9235,0.9218,0.9213,0.9215,0.9172,0.9183,0.9178,0.9173,0.9135,0.913,0.9128,0.9133,0.9105,0.9105,0.9105,0.9104,0.9159,0.9161,0,0,0,0,0,0,0.9292,0.9283,0.9256,0.9253,0.9254,0.9219,0.9213,0.9209,0.9172,0.9164,0.9175,0.917,0.9131,0.9128,0.9126,0.9158,0.9105,0.9104,0.9104,0.9158,0.916,0.9162,0,0,0,0,0,0,0.9293,0.9291,0.9258,0.9267,0.9261,0.922,0.9217,0.9209,0.9204,0.9165,0.9157,0.9177,0.913,0.9126,0.9135,0.9156,0.9104,0.9104,0.9156,0.9158,0.9161,0.9225,0,0,0,0,0,0,0.9295,0.9291,0.9303,0.9268,0.9261,0.9267,0.9218,0.9209,0.9203,0.9197,0.9165,0.9159,0.9128,0.9135,0.9134,0.9154,0.9104,0.9154,0.9157,0.916,0.9221,0.9229,0.9236,0,0,0,0,0,0.9296,0.9323,0.9304,0.9301,0.9275,0.9269,0.9265,0.9229,0.9205,0.9216,0.9191,0.916,0.9154,0.9137,0.9135,0.9155,0.9152,0.9156,0.916,0.9217,0.9227,0.9236,0,0,0,0,0,0,0.9363,0.9318,0.9296,0.9312,0.9295,0.9258,0.927,0.9242,0.9231,0.9226,0.9183,0.9176,0.9189,0.9173,0.9155,0.9183,0.9148,0.9152,0.9192,0.9202,0.921,0.9213,0.9103,0,0,0,0,0,0.938,0.9378,0.9339,0.9358,0.935,0.9312,0.9308,0.9282,0.9262,0.9255,0.923,0.9213,0.9207,0.9204,0.9196,0.9218,0.921,0.9231,0.9239,0.9246,0.9249,0.9258,0.9267,0.9174,0.9174,0.9174,0,0,0.9414,0.9389,0.9391,0.9371,0.9354,0.9353,0.9306,0.9308,0.9307,0.9255,0.926,0.9242,0.922,0.9234,0.924,0.9221,0.9273,0.9251,0.9257,0.9256,0.9263,0.9272,0.9279,0.9177,0.9176,0.9176,0,0,0.9476,0.9458,0.947,0.9454,0.9429,0.9403,0.9406,0.9373,0.9359,0.9363,0.9324,0.9323,0.9314,0.9298,0.929,0.9345,0.9315,0.9344,0.9385,0.9394,0.9401,0.9408,0.9426,0.9433,0.9348,0.9348,0.9348,0,0.9522,0.9519,0.948,0.9484,0.9475,0.9428,0.9439,0.9426,0.94,0.9396,0.9376,0.9362,0.9344,0.9353,0.9367,0.9362,0.9363,0.9347,0.9404,0.9409,0.9415,0.9431,0.9439,0.9351,0.9351,0.935,0.935,0,0.9576,0.9574,0.9587,0.9562,0.9556,0.9564,0.9526,0.9524,0.9498,0.9475,0.948,0.9456,0.9442,0.9443,0.9418,0.9448,0.9438,0.9411,0.9376,0.9428,0.9442,0.9449,0.9356,0.9355,0.9354,0.9353,0,0,0.9677,0.963,0.9636,0.9623,0.9592,0.959,0.9596,0.9581,0.958,0.9564,0.9567,0.956,0.9534,0.9525,0.9498,0.9506,0.955,0.9479,0.9477,0.9491,0.9579,0.9598,0.9607,0.953,0.9531,0.9532,0.9581,0,0.9732,0.9738,0.9703,0.9718,0.9716,0.9671,0.9675,0.9656,0.9635,0.963,0.9606,0.9601,0.9569,0.9562,0.9568,0.9543,0.9566,0.9539,0.9532,0.9532,0.9537,0.9615,0.9635,0.9682,0.9587,0.9588,0.9588,0,0.9796,0.9782,0.9797,0.9764,0.9761,0.9766,0.9749,0.9745,0.9723,0.9706,0.9695,0.9664,0.9667,0.9634,0.9637,0.9619,0.9614,0.9601,0.9602,0.9599,0.9562,0.9612,0.9696,0.9703,0.9598,0.9597,0.9596,0,0.9867,0.9852,0.9858,0.9849,0.9811,0.9815,0.98,0.9776,0.9769,0.9755,0.9749,0.9736,0.9729,0.9719,0.9685,0.9665,0.9691,0.9656,0.9677,0.9678,0.9684,0.9683,0.9767,0.9683,0.9683,0.9683,0.9683,0,0.993,0.994,0.9889,0.9893,0.9903,0.9863,0.9875,0.9854,0.9833,0.9832,0.9793,0.9793,0.9749,0.9744,0.9718,0.9723,0.9721,0.9707,0.97,0.971,0.9711,0.9705,0.97,0.9685,0.9684,0.9684,0.9684,0,1.001,0.9976,0.998,0.9943,0.9934,0.9943,0.9911,0.9913,0.9889,0.9888,0.9886,0.9848,0.984,0.9805,0.979,0.9772,0.9785,0.9772,0.9793,0.9788,0.981,0.9808,0.9891,0.9899,0.9812,0.9813,0.9814,0,1.0051,1.0058,1.0022,1.0018,1.0004,0.9999,0.9991,0.9952,0.9946,0.992,0.9925,0.9914,0.9903,0.9892,0.9863,0.985,0.9835,0.9865,0.9833,0.9843,0.9834,0.9833,0.9833,0.9872,0.9873,0.9874,0.9875,0,1.0128,1.0111,1.0102,1.0086,1.0078,1.0065,1.0049,1.0048,1.0004,0.9999,0.999,0.9982,0.9965,0.9954,0.9936,0.992,0.989,0.9885,0.9889,0.9899,0.991,0.9902,0.981,0.9883,0.9882,0.9882,0.9881,0.9881,1.0189,1.0192,1.0167,1.0157,1.0141,1.0127,1.0126,1.0102,1.0093,1.0076,1.0054,1.0047,1.0024,0.9997,0.9983,0.9977,0.9961,0.9967,0.9968,0.997,0.9974,0.9912,0.9974,0.9974,0.9974,0.9974,0.9973,0,1.0262,1.0244,1.0236,1.0214,1.0206,1.0179,1.0159,1.0155,1.0149,1.013,1.0119,1.0109,1.0097,1.0068,1.0053,1.0054,1.004,1.0052,1.0051,1.0047,0.9991,0.9988,1.0063,1.0063,1.0063,1.0063,1.0063,1.0063,1.0299,1.0303,1.0283,1.0278,1.0259,1.0252,1.0243,1.023,1.0214,1.0203,1.0193,1.0174,1.015,1.0134,1.0122,1.0114,1.011,1.0126,1.0112,1.006,1.0051,1.0043,1.004,1.0125,1.0125,1.0169,1.0169,1.017]},{"header":{"parameterUnit":"m.s-1","parameterCategory":1,"la1":30.2991,"la2":30.254,"lo1":-89.0895,"lo2":-89.0444,"dy":0.0017,"dx":0.0017,"nx":28,"ny":28,"refTime":"2025-07-16T09:00:00:Z","depth":0,"parameterNumber":3,"parameterNumberName":"V-component_of_WINDS"},"data":[0,0,0,0,0,0,0,0,0,0,0,0,0,0,0,0,0,0,0,0,0,0,0,0,0,0,0,0,0,0,0,0,0,0,0,0,0,0,0,0,0,0,0,0,0,0,0,0,0,0,0,0,0,0,0,0,0,0,6.5895,6.5895,0,6.5933,6.5933,6.5934,6.5843,6.584,6.5837,6.5834,6.5871,6.5874,6.5878,0,0,0,0,0,0,0,0,0,0,0,0,0,6.5739,6.5742,6.5895,6.5896,6.5896,6.5933,6.5934,6.5934,6.5843,6.584,6.5836,6.5833,6.5869,6.5874,6.5878,0,0,0,0,0,0,0,0,0,0,0,0,0,6.5795,6.5743,6.5895,6.5855,6.5852,6.5933,6.5934,6.5934,6.5844,6.584,6.5835,6.5831,6.5868,6.5873,6.5879,6.5999,0,0,6.5896,6.5898,0,0,0,0,0,0,0,0,6.5792,6.5801,6.5861,6.5858,6.5855,6.5879,6.5892,6.5956,6.5845,6.5847,6.5834,6.5829,6.5877,6.5881,6.5898,6.6001,6.6003,6.5896,6.5899,6.5902,6.5903,0,0,0,0,0,0,0,6.5788,6.5798,6.591,6.5861,6.5858,6.5834,6.5837,6.5903,6.5885,6.5846,6.584,6.5846,6.5874,6.5893,6.5898,6.6003,6.5896,6.5901,6.5904,6.5906,6.6203,6.6207,0,0,0,0,0,0,6.579,6.5796,6.5909,6.5911,6.5812,6.584,6.5844,6.5875,6.5885,6.5882,6.5849,6.5841,6.5885,6.5892,6.5899,6.6037,6.5902,6.5907,6.591,6.6198,6.6204,6.6209,0,0,0,0,0,0,6.5787,6.5801,6.5907,6.5852,6.5863,6.5847,6.5884,6.5878,6.5897,6.5887,6.5883,6.5872,6.5882,6.5891,6.5974,6.6037,6.5909,6.5914,6.6193,6.62,6.6206,6.6317,0,0,0,0,0,0,6.5783,6.58,6.5847,6.5854,6.5867,6.5984,6.5888,6.5882,6.5907,6.5897,6.5907,6.5904,6.588,6.5966,6.598,6.6043,6.5919,6.6187,6.6196,6.6204,6.6308,6.6327,6.6344,0,0,0,0,0,6.5777,6.5877,6.585,6.5864,6.5925,6.5988,6.5995,6.5965,6.5912,6.5958,6.5951,6.5904,6.6029,6.5976,6.599,6.6055,6.6183,6.6193,6.6203,6.63,6.6323,6.6343,0,0,0,0,0,0,6.5879,6.5878,6.5847,6.5953,6.5971,6.5972,6.6029,6.5992,6.6025,6.6014,6.5974,6.5977,6.6067,6.607,6.6011,6.617,6.6096,6.611,6.6165,6.6187,6.6205,6.6201,6.5923,0,0,0,0,0,6.5914,6.5966,6.5961,6.6054,6.6065,6.6046,6.6072,6.6047,6.6064,6.6071,6.607,6.6088,6.613,6.6159,6.6199,6.6308,6.6307,6.636,6.6378,6.6393,6.6404,6.6459,6.6481,6.6242,6.6242,6.6242,0,0,6.5986,6.5991,6.6027,6.6075,6.6086,6.6138,6.6053,6.6113,6.6151,6.608,6.6157,6.6158,6.6174,6.627,6.6313,6.6275,6.647,6.6406,6.6418,6.6421,6.6472,6.6494,6.6514,6.6249,6.6248,6.6247,0,0,6.6143,6.6154,6.6231,6.6244,6.6262,6.6248,6.6266,6.6273,6.627,6.6348,6.6294,6.6338,6.6414,6.6427,6.6443,6.6603,6.6559,6.6617,6.6709,6.6763,6.6782,6.6798,6.6852,6.6872,6.6629,6.6629,6.6629,0,6.623,6.6308,6.6275,6.6338,6.6359,6.6298,6.6374,6.6387,6.6417,6.6432,6.6391,6.6481,6.6489,6.6585,6.6624,6.664,6.6658,6.6614,6.6782,6.6798,6.6813,6.6863,6.6884,6.6635,6.6635,6.6634,6.6633,0,6.6412,6.6467,6.6527,6.6556,6.6585,6.6654,6.6629,6.6662,6.6634,6.6624,6.6702,6.6708,6.6746,6.6767,6.6741,6.6859,6.6835,6.6789,6.6713,6.6843,6.6889,6.6909,6.6645,6.6643,6.6641,6.6639,0,0,6.6635,6.6644,6.6666,6.6677,6.6691,6.6732,6.6797,6.6834,6.6861,6.6883,6.6935,6.6999,6.6955,6.6973,6.6948,6.6996,6.7118,6.6943,6.6942,6.6972,6.7244,6.7277,6.73,6.709,6.7093,6.7096,6.7241,0,6.6788,6.69,6.6871,6.6982,6.703,6.6971,6.7027,6.7041,6.7033,6.7071,6.7062,6.7107,6.7047,6.7057,6.7102,6.7093,6.7171,6.7083,6.7135,6.7137,6.713,6.7325,6.7361,6.7497,6.726,6.7263,6.7265,0,6.6981,6.701,6.7125,6.7128,6.7147,6.7198,6.7228,6.7266,6.7279,6.727,6.729,6.7254,6.7316,6.7242,6.7325,6.7266,6.7285,6.7284,6.7289,6.729,6.7207,6.7329,6.7541,6.756,6.7294,6.7292,6.729,0,6.7128,6.7195,6.7272,6.7284,6.729,6.7327,6.7331,6.734,6.7363,6.7388,6.7402,6.7435,6.7453,6.7478,6.7452,6.7401,6.7538,6.7462,6.7529,6.753,6.7559,6.7557,6.7774,6.7577,6.7576,6.7576,6.7576,0,6.73,6.7372,6.7337,6.7384,6.7462,6.7427,6.7505,6.7502,6.7511,6.7554,6.7506,6.7548,6.7512,6.755,6.753,6.76,6.7609,6.7601,6.7594,6.7604,6.7605,6.7614,6.7603,6.7581,6.758,6.7579,6.7578,0,6.7476,6.7456,6.7535,6.7534,6.7535,6.7592,6.759,6.7633,6.7621,6.7677,6.7688,6.7669,6.7711,6.7687,6.7732,6.7717,6.7807,6.7789,6.7803,6.7797,6.7864,6.7857,6.8093,6.812,6.7908,6.791,6.7912,0,6.7586,6.7639,6.7643,6.7669,6.7676,6.7719,6.7742,6.7709,6.7734,6.7752,6.7791,6.7829,6.7858,6.7928,6.7917,6.795,6.793,6.801,6.7934,6.7941,6.7927,6.7923,6.7927,6.8025,6.8027,6.8029,6.8031,0,6.7782,6.7768,6.7803,6.7833,6.7861,6.7884,6.7903,6.7926,6.7893,6.7924,6.7966,6.7988,6.8032,6.8069,6.8097,6.8099,6.8059,6.8055,6.8072,6.8081,6.8085,6.808,6.7841,6.8049,6.8048,6.8046,6.8045,6.8044,6.7925,6.7969,6.7978,6.8017,6.8027,6.8045,6.8083,6.8075,6.811,6.8143,6.8121,6.8171,6.818,6.8212,6.822,6.8257,6.8224,6.8249,6.8255,6.8261,6.8269,6.8082,6.8262,6.8261,6.8261,6.826,6.826,0,6.8116,6.8118,6.8154,6.8181,6.8211,6.8171,6.8188,6.8216,6.826,6.8272,6.83,6.8347,6.8383,6.8375,6.8406,6.8437,6.8419,6.8446,6.8442,6.8443,6.8297,6.8278,6.846,6.846,6.846,6.846,6.846,6.846,6.8218,6.8288,6.8276,6.8349,6.8351,6.8398,6.8411,6.8426,6.8435,6.849,6.8519,6.8513,6.8516,6.8547,6.8577,6.8574,6.8586,6.862,6.8609,6.8473,6.8453,6.8434,6.8416,6.8624,6.8624,6.8751,6.8752,6.8753]}]]